Simultaneous Nadir Overpasses (SNOs) Predictions

Prediction of SNOs between GOES-17 and FY3D Satellite Orbit:

Table of predicted SNOs for the next 14.0 days since TLE Epoch: 12/20/2020
Index Date Time (GOES-17) GOES-17 Lat,Lon FY3D Lat,Lon Distance(km) Time Diff (sec)
1 12/20/2020 10:54:59 -0.02,-137.23 0.75,-140.64 388.54 80
2 12/21/2020 10:38:42 -0.02,-137.23 -0.30,-136.06 133.89 80
3 12/22/2020 22:57:39 0.02,-137.22 -0.90,-141.27 461.95 80
4 12/23/2020 22:41:22 0.02,-137.21 0.15,-136.69 60.28 80
5 12/26/2020 10:41:14 -0.01,-137.20 0.02,-137.28 9.38 80
6 12/28/2020 22:43:54 -0.00,-137.17 -0.17,-137.92 85.06 80
7 12/29/2020 22:27:36 -0.01,-137.15 0.83,-133.32 435.98 80
8 12/31/2020 10:46:26 0.01,-137.13 0.33,-138.51 157.28 80
9 01/01/2021 10:30:09 0.01,-137.11 -0.72,-133.93 363.19 80
10 01/02/2021 22:49:05 -0.01,-137.08 -0.48,-139.14 235.65 80
